Regional Weather Roundup
Issued by NWS Jackson, KY

Home | Current Version | Previous Version | Text Only | Print | Product List | Glossary On
Versions: 1 2 3 4 5 6 7 8 9 10 11 12 13 14 15 16 17 18 19 20 21 22 23 24 25 26 27 28 29 30 31 32 33 34 35 36 37 38 39 40 41 42 43 44 45 46 47 48 49 50
246
ASUS43 KJKL 190810
RWRJKL

EAST KENTUCKY HOURLY WEATHER ROUNDUP
NATIONAL WEATHER SERVICE JACKSON KY
300 AM EST THU JAN 19 2017

NOTE: "FAIR" INDICATES FEW OR NO CLOUDS BELOW 12,000 FEET WITH
NO SIGNIFICANT WEATHER AND/OR OBSTRUCTIONS TO VISIBILITY.

* THESE REPORTS ARE NOT UNDER NWS QUALITY CONTROL AND MAY NOT
  REPORT WEATHER SUCH AS PRECIPITATION AND FOG.

KYZ079-080-083-085-087-088-110-112-115-119-120-190900
...EASTERN KENTUCKY...

CITY           SKY/WX    TMP DP  RH WIND       PRES   REMARKS
JACKSON        PTCLDY    39  36  89 CALM      30.11R
LONDON         PTCLDY    39  35  86 CALM      30.11R
SOMERSET*      MOCLDY    37  37 100 CALM      30.11S
MONTICELLO*    CLOUDY    41  39  93 NE8       30.12R
WILLIAMSBURG*  MOSUNNY   39  39 100 SE6       30.10R WCI  35
MIDDLESBORO*   CLOUDY    39  39 100 CALM      30.13S
HARLAN APT*    CLOUDY    37  36  93 CALM      30.12F
PIKE CO APT*     N/A     37  37 100 SE3       30.11S
BIG SANDY APT* CLOUDY    38  38 100 CALM      30.12S
MOREHEAD APT*  MOSUNNY   39  36  87 CALM      30.14S
ASHLAND*       CLOUDY    43  37  81 CALM      30.12S
$$

KYZ035-036-041-042-044-050-067-078-099-190900
...CENTRAL KENTUCKY...

CITY           SKY/WX    TMP DP  RH WIND       PRES   REMARKS
MT STERLING*   CLOUDY    36  36 100 SE3       30.13S
FLEMING/MASON* PTCLDY    38  36  92 CALM      30.14R
DANVILLE*      MOCLDY    36  36 100 CALM      30.10S
LEXINGTON      MOCLDY    37  34  89 E6        30.10F WCI  32
FRANKFORT      MOCLDY    36  33  89 CALM      30.10S
LOUISVILLE     CLOUDY    41  35  79 CALM      30.10S
LEBANON*         N/A     39  37  93 E5        30.09F
GLASGOW*       CLOUDY    41  41 100 CALM      30.09R
BOWLING GREEN  CLOUDY    44  40  85 E5        30.08F
$$

KYZ091>093-OHZ055-061-077-WVZ005-015-034-035-042-190900
...SOUTHERN OHIO/WEST VIRGINIA...

CITY           SKY/WX    TMP DP  RH WIND       PRES   REMARKS
COVINGTON      CLOUDY    39  37  92 S3        30.12R
COLUMBUS       CLOUDY    40  36  86 S6        30.11R
DAYTON         CLOUDY    36  35  96 SW8       30.11S FOG     WCI  30
WILMINGTON     CLOUDY    37  36  96 S8        30.12R WCI  31
HUNTINGTON     CLOUDY    43  37  79 SW3       30.13R
CHARLESTON     CLOUDY    43  37  79 CALM      30.12R
PINEVILLE*     CLOUDY    34  30  86 MISG      30.16R
BECKLEY        CLOUDY    36  35  96 SW3       30.08S
BLUEFIELD      CLOUDY    33  31  92 W7        30.08S WCI  27
LOGAN CO APT*    N/A     39  37  93 CALM      30.10F
$$

VAZ002-007-008-TNZ017-027-036-066-071-190900
...SOUTHWEST VIRGINIA/EAST TENNESSEE...

CITY           SKY/WX    TMP DP  RH WIND       PRES   REMARKS
WISE*          CLOUDY    36  36 100 SW5       30.10S WCI  32
JONESVILLE*      N/A     37  37 100 CALM      30.13F
ABINGDON*      CLOUDY    38  37  95 CALM      30.10S
BRISTOL        PTCLDY    39  37  92 CALM      30.10F
MORRISTOWN*    SUNNY     43  41  93 CALM      30.10S
SEVIERVILLE*   SUNNY     39  39 100 CALM      30.11S
KNOXVILLE      MOCLDY    43  40  89 NE7       30.09F
LAFOLLETTE*    SUNNY     41  41 100 CALM      30.14S
OAK RIDGE      MOCLDY    44  40  85 E3        30.12S
CROSSVILLE     CLOUDY    41  40  96 CALM      30.08S
NASHVILLE      CLOUDY    47  42  83 NE6       30.05F
$$

...KEY TO REMARKS...
VSB - VISIBILITY IN MILES
WCI - WIND CHILL INDEX
HX  - HEAT INDEX

$$




USA.gov is the U.S. government's official web portal to all federal, state and local government web resources and services.